Retour au catalogue

CZ-3B DEB

LostHEO
NORAD 52965·DEBRIS·🇨🇳 China

Lancé Sep 4, 2010 depuis Xichang Satellite Launch Center

Loading…

Prochains Passages (prochaines 24 heures)

TLE

PériméSource: Space-Track

Époque: Feb 14, 2025, 04:58 UTC

1 52965U 10042AJ  25045.20726453 -.00000283  00000-0 -14326-1 0  9991
2 52965  25.0308 352.2598 7416537 279.4481  11.3486  1.82725175 19369

Suivez CZ-3B DEB en temps réel avec AllMySat

Download on the App Store